When you browse on this site, cookies collect data to enhance your experience and personalize the content and advertising you see.
Visit our Privacy Policy to learn more. By continuing to use the site, you agree to this use of cookies and data.
  • en France
  • Liste des pays
  • À 7 jours
  • Température de l'eau
  • Carte météo
  • Widgets météo
  • user-avatar
    Se connecter

    Météo par heure à Jaunde

    Ce jour, 1 Juin, Lundi

    Heure Température Précipitation Vent Pression Humidité
    00:00 +23°C° 0.7 mm 1 m/s 698 mmHg 99%
    01:00 +23°C° 0 mm 1 m/s 699 mmHg 99%
    02:00 +23°C° 0.3 mm 1 m/s 698 mmHg 99%
    03:00 +23°C° 0.3 mm 1 m/s 698 mmHg 99%
    04:00 +23°C° 0.3 mm 1 m/s 698 mmHg 99%
    05:00 +23°C° 0.1 mm 1 m/s 698 mmHg 99%
    06:00 +23°C° 0.1 mm 1 m/s 699 mmHg 99%
    07:00 +23°C° 0.1 mm 1 m/s 699 mmHg 99%
    08:00 +24°C° 0.2 mm 1 m/s 699 mmHg 95%
    09:00 +25°C° 0.2 mm 1 m/s 700 mmHg 91%
    10:00 +26°C° 0.2 mm 1 m/s 700 mmHg 88%
    11:00 +27°C° 0.7 mm 1 m/s 700 mmHg 81%
    12:00 +29°C° 0.7 mm 1 m/s 699 mmHg 74%
    13:00 +28°C° 0.7 mm 0 m/s 699 mmHg 67%
    14:00 +29°C° 0.7 mm 1 m/s 698 mmHg 72%
    15:00 +29°C° 0.7 mm 1 m/s 697 mmHg 77%
    16:00 +28°C° 0.7 mm 1 m/s 697 mmHg 82%
    17:00 +26°C° 0.9 mm 1 m/s 697 mmHg 87%
    18:00 +25°C° 0.9 mm 1 m/s 697 mmHg 92%
    19:00 +24°C° 0.9 mm 1 m/s 698 mmHg 96%
    20:00 +23°C° 0.2 mm 1 m/s 698 mmHg 97%
    21:00 +23°C° 0.2 mm 1 m/s 698 mmHg 98%
    22:00 +22°C° 0.2 mm 1 m/s 698 mmHg 98%
    23:00 +22°C° 0.1 mm 1 m/s 698 mmHg 98%

    Demain, 2 Juin, Mardi

    Heure Température Précipitation Vent Pression Humidité
    00:00 +22°C° 0.1 mm 1 m/s 698 mmHg 98%
    01:00 +22°C° 0.1 mm 1 m/s 698 mmHg 99%
    02:00 +22°C° 0 mm 1 m/s 698 mmHg 99%
    03:00 +22°C° 0 mm 1 m/s 698 mmHg 99%
    04:00 +20°C° 0 mm 0 m/s 698 mmHg 99%
    05:00 +22°C° 0 mm 1 m/s 698 mmHg 99%
    06:00 +22°C° 0 mm 1 m/s 698 mmHg 98%
    07:00 +23°C° 0 mm 1 m/s 699 mmHg 98%
    08:00 +24°C° 0 mm 1 m/s 699 mmHg 94%
    09:00 +25°C° 0 mm 1 m/s 699 mmHg 91%
    10:00 +25°C° 0 mm 1 m/s 700 mmHg 87%
    11:00 +26°C° 0.4 mm 1 m/s 699 mmHg 86%
    12:00 +26°C° 0.4 mm 1 m/s 699 mmHg 86%
    13:00 +24°C° 0.4 mm 0 m/s 698 mmHg 86%
    14:00 +27°C° 0.1 mm 1 m/s 698 mmHg 80%
    15:00 +28°C° 0.1 mm 1 m/s 697 mmHg 75%
    16:00 +29°C° 0.1 mm 1 m/s 697 mmHg 70%
    17:00 +27°C° 0.6 mm 1 m/s 697 mmHg 79%
    18:00 +25°C° 0.6 mm 1 m/s 697 mmHg 88%
    19:00 +23°C° 0.6 mm 1 m/s 698 mmHg 97%
    20:00 +23°C° 0 mm 1 m/s 698 mmHg 98%
    21:00 +23°C° 0 mm 1 m/s 698 mmHg 98%
    22:00 +22°C° 0 mm 1 m/s 698 mmHg 99%
    23:00 +22°C° 0.2 mm 1 m/s 699 mmHg 99%

    Après-demain, 3 Juin, Mercredi

    Heure Température Précipitation Vent Pression Humidité
    00:00 +22°C° 0.2 mm 1 m/s 699 mmHg 98%
    01:00 +22°C° 0.2 mm 1 m/s 699 mmHg 98%
    02:00 +22°C° 0.1 mm 1 m/s 698 mmHg 98%
    03:00 +22°C° 0.1 mm 1 m/s 698 mmHg 98%
    04:00 +22°C° 0.1 mm 1 m/s 697 mmHg 98%
    05:00 +22°C° 0 mm 1 m/s 698 mmHg 98%
    06:00 +22°C° 0 mm 1 m/s 698 mmHg 97%
    07:00 +22°C° 0 mm 1 m/s 699 mmHg 97%
    08:00 +24°C° 0.1 mm 1 m/s 699 mmHg 90%
    09:00 +25°C° 0.1 mm 1 m/s 699 mmHg 83%
    10:00 +27°C° 0.1 mm 1 m/s 700 mmHg 75%
    11:00 +29°C° 0 mm 1 m/s 699 mmHg 67%
    12:00 +31°C° 0 mm 1 m/s 699 mmHg 59%
    13:00 +32°C° 0 mm 1 m/s 699 mmHg 50%
    14:00 +31°C° 0.9 mm 1 m/s 698 mmHg 62%
    15:00 +29°C° 0.9 mm 2 m/s 697 mmHg 74%
    16:00 +27°C° 0.9 mm 2 m/s 696 mmHg 86%
    17:00 +26°C° 0.9 mm 1 m/s 696 mmHg 90%
    18:00 +25°C° 0.9 mm 1 m/s 697 mmHg 94%
    19:00 +23°C° 0.9 mm 1 m/s 697 mmHg 98%
    20:00 +23°C° 0.2 mm 1 m/s 697 mmHg 98%
    21:00 +23°C° 0.2 mm 1 m/s 698 mmHg 98%
    22:00 +23°C° 0.2 mm 1 m/s 698 mmHg 99%
    23:00 +23°C° 0 mm 1 m/s 698 mmHg 99%

    4 Juin, Jeudi

    Heure Température Précipitation Vent Pression Humidité
    00:00 +23°C° 0 mm 1 m/s 698 mmHg 99%
    01:00 +22°C° 0 mm 1 m/s 698 mmHg 99%
    02:00 +22°C° 0 mm 1 m/s 698 mmHg 99%
    03:00 +22°C° 0 mm 1 m/s 697 mmHg 99%
    04:00 +22°C° 0 mm 1 m/s 697 mmHg 98%
    05:00 +22°C° 0 mm 1 m/s 697 mmHg 98%
    06:00 +23°C° 0 mm 1 m/s 698 mmHg 97%
    07:00 +23°C° 0 mm 1 m/s 698 mmHg 97%
    08:00 +24°C° 0 mm 1 m/s 699 mmHg 90%
    09:00 +26°C° 0 mm 1 m/s 699 mmHg 82%
    10:00 +27°C° 0 mm 1 m/s 699 mmHg 75%
    11:00 +29°C° 0.5 mm 1 m/s 699 mmHg 68%
    12:00 +30°C° 0.5 mm 1 m/s 699 mmHg 62%
    13:00 +31°C° 0.5 mm 1 m/s 698 mmHg 55%
    14:00 +30°C° 0.8 mm 1 m/s 697 mmHg 65%
    15:00 +29°C° 0.8 mm 1 m/s 697 mmHg 75%
    16:00 +27°C° 0.8 mm 1 m/s 696 mmHg 85%
    17:00 +26°C° 0.8 mm 1 m/s 696 mmHg 89%
    18:00 +25°C° 0.8 mm 1 m/s 697 mmHg 93%
    19:00 +24°C° 0.8 mm 1 m/s 697 mmHg 97%
    20:00 +23°C° 0.5 mm 1 m/s 697 mmHg 98%
    21:00 +23°C° 0.5 mm 1 m/s 698 mmHg 98%
    22:00 +23°C° 0.5 mm 1 m/s 698 mmHg 99%
    23:00 +23°C° 0.3 mm 1 m/s 698 mmHg 99%

    5 Juin, Vendredi

    Heure Température Précipitation Vent Pression Humidité
    00:00 +23°C° 0.3 mm 1 m/s 698 mmHg 99%
    01:00 +23°C° 0.3 mm 1 m/s 698 mmHg 99%
    02:00 +23°C° 0 mm 1 m/s 698 mmHg 99%
    03:00 +22°C° 0 mm 1 m/s 698 mmHg 99%
    04:00 +22°C° 0 mm 1 m/s 697 mmHg 99%
    05:00 +22°C° 0 mm 1 m/s 698 mmHg 98%
    06:00 +22°C° 0 mm 1 m/s 698 mmHg 98%
    07:00 +23°C° 0 mm 1 m/s 699 mmHg 98%
    08:00 +24°C° 0 mm 1 m/s 699 mmHg 93%
    09:00 +25°C° 0 mm 1 m/s 700 mmHg 89%
    10:00 +26°C° 0 mm 1 m/s 700 mmHg 84%
    11:00 +26°C° 0.8 mm 1 m/s 700 mmHg 84%
    12:00 +27°C° 0.8 mm 1 m/s 699 mmHg 85%
    13:00 +25°C° 0.8 mm 0 m/s 699 mmHg 85%
    14:00 +28°C° 0.6 mm 1 m/s 698 mmHg 82%
    15:00 +28°C° 0.6 mm 1 m/s 698 mmHg 80%
    16:00 +28°C° 0.6 mm 1 m/s 697 mmHg 78%
    17:00 +27°C° 0.5 mm 1 m/s 697 mmHg 84%
    18:00 +25°C° 0.5 mm 1 m/s 698 mmHg 91%
    19:00 +24°C° 0.5 mm 1 m/s 698 mmHg 98%
    20:00 +23°C° 0 mm 1 m/s 698 mmHg 98%
    21:00 +23°C° 0 mm 1 m/s 698 mmHg 99%
    22:00 +23°C° 0 mm 1 m/s 698 mmHg 99%
    23:00 +22°C° 0 mm 1 m/s 698 mmHg 99%

    6 Juin, Samedi

    Heure Température Précipitation Vent Pression Humidité
    00:00 +22°C° 0 mm 1 m/s 698 mmHg 99%
    01:00 +22°C° 0 mm 1 m/s 698 mmHg 99%
    02:00 +22°C° 0 mm 1 m/s 698 mmHg 99%
    03:00 +22°C° 0 mm 1 m/s 698 mmHg 98%
    04:00 +22°C° 0 mm 1 m/s 698 mmHg 98%
    05:00 +20°C° 0 mm 0 m/s 698 mmHg 98%
    06:00 +20°C° 0 mm 0 m/s 699 mmHg 98%
    07:00 +20°C° 0 mm 0 m/s 699 mmHg 98%
    08:00 +22°C° 0.3 mm 0 m/s 699 mmHg 91%
    09:00 +24°C° 0.3 mm 0 m/s 700 mmHg 85%
    10:00 +28°C° 0.3 mm 1 m/s 701 mmHg 78%
    11:00 +28°C° 0.9 mm 1 m/s 700 mmHg 77%
    12:00 +29°C° 0.9 mm 1 m/s 699 mmHg 75%
    13:00 +29°C° 0.9 mm 1 m/s 699 mmHg 73%
    14:00 +29°C° 0.9 mm 1 m/s 698 mmHg 74%
    15:00 +29°C° 0.9 mm 1 m/s 698 mmHg 75%
    16:00 +29°C° 0.9 mm 1 m/s 697 mmHg 77%
    17:00 +27°C° 0.1 mm 1 m/s 697 mmHg 82%
    18:00 +26°C° 0.1 mm 1 m/s 697 mmHg 87%
    19:00 +24°C° 0.1 mm 1 m/s 697 mmHg 93%
    20:00 +24°C° 0 mm 1 m/s 698 mmHg 94%
    21:00 +24°C° 0 mm 1 m/s 698 mmHg 96%
    22:00 +23°C° 0 mm 1 m/s 698 mmHg 97%
    23:00 +23°C° 0 mm 1 m/s 698 mmHg 97%
    Voir plus